Regional Weather Roundup
Issued by NWS

Home | Current Version | Previous Version | Text Only | Print | Product List | Glossary Off
Versions: 1 2 3 4 5 6 7 8 9 10 11 12 13 14 15 16 17 18 19 20 21 22 23 24 25 26 27 28 29 30 31 32 33 34 35 36 37 38 39 40 41 42 43 44 45 46 47 48 49 50

000
ASUS44 KMEG 211800
RWRTN
TENNESSEE HOURLY STATE WEATHER ROUNDUP
NATIONAL WEATHER SERVICE MEMPHIS TN
100 PM CDT THU SEP 21 2017

TNZ002-004-019-021-049-052-054-088>092-211900-
WEST TENNESSEE

CITY           SKY/WX    TMP DP  RH WIND       PRES   REMARKS
MEMPHIS INTL   MOSUNNY   89  71  55 NW5       30.06F HX  95
NWS MEMPHIS      N/A     90 N/A N/A MISG        N/A
JACKSON        PTSUNNY   89  73  59 S5        30.07F HX  97
DYERSBURG      SUNNY     90  73  57 VRB3      30.06F HX  98
$$

TNZ008-025-027-028-033-062-065-066-211900-
NORTH MIDDLE TENNESSEE

CITY           SKY/WX    TMP DP  RH WIND       PRES   REMARKS
NASHVILLE      PTSUNNY   87  70  56 N7        30.08F HX  92
CLARKSVILLE    SUNNY     89  69  51 CALM      30.07F HX  93
SMYRNA           N/A    N/A N/A N/A MISG        N/A
CROSSVILLE     MOSUNNY   82  65  56 VRB6      30.14F
$$

TNZ061-075-076-078-094-096-097-211900-
SOUTH MIDDLE TENNESSEE

CITY           SKY/WX    TMP DP  RH WIND       PRES   REMARKS
$$

TNZ017-018-042-046-047-211900-
NORTHEAST TENNESSEE

CITY           SKY/WX    TMP DP  RH WIND       PRES   REMARKS
TRI CITIES     PTSUNNY   81  63  54 CALM      30.12F
$$

TNZ012-013-036-069-073-074-211900-
CENTRAL EAST TENNESSEE

CITY           SKY/WX    TMP DP  RH WIND       PRES   REMARKS
KNOXVILLE      MOSUNNY   85  65  51 VRB5      30.08F
OAK RIDGE      MOSUNNY   85  65  51 CALM      30.09F
GATLINBURG     MOSUNNY   84  61  45 E9        30.09S
$$

TNZ083-085-099-211900-
SOUTHEAST TENNESSEE

CITY           SKY/WX    TMP DP  RH WIND       PRES   REMARKS
CHATTANOOGA    CLOUDY    87  68  52 N10       30.08F HX  90
$$

SKY/WX REPORTED AS FAIR MEANS FEW OR NO CLOUDS BELOW
12 THOUSAND FEET.





USA.gov is the U.S. government's official web portal to all federal, state and local government web resources and services.